Weather History for Farmington, MO

Change the Weather History Date:

Saturday, May 12, 2012

  Actual Average Record
Temperature  
Mean Temperature 62 °F -  
Max Temperature 73 °F 72 °F 87 °F (2005)
Min Temperature 51 °F 52 °F 37 °F (2013)
Degree Days  
Heating Degree Days 3    
Growing Degree Days 12 (Base 50)    
Moisture  
Dew Point 51 °F    
Average Humidity 68    
Maximum Humidity 94    
Minimum Humidity 43    
Precipitation  
Precipitation 0.00 in - - ()
Sea Level Pressure  
Sea Level Pressure 30.18 in    
Wind  
Wind Speed 2 mph (NE)    
Max Wind Speed 13 mph    
Max Gust Speed -    
Visibility 10 miles    
Events      
Averages and records for this station are not official NWS values.
T = Trace of Precipitation, MM = Missing Value Source: NWS Daily Summary

Daily Weather History Graph

Daily Weather History Graph

Search for Another Location

Airport:

Trip Planner

Search our weather history database for the weather conditions in past years. The results will help you decide how hot, cold, wet, or windy it might be!

Date:

Astronomy

May. 12, 2012 Rise Set
Actual Time 5:54 AM CDT 8:02 PM CDT
Civil Twilight 5:24 AM CDT 8:31 PM CDT
Nautical Twilight 4:49 AM CDT 9:07 PM CDT
Astronomical Twilight 4:10 AM CDT 9:46 PM CDT
Moon 1:18 AM CDT (5/12) 12:30 PM CDT (5/12)
Length of Visible Light 15h 06m
Length of Day
14h 08m
Waning Gibbous, 52% of the Moon is Illuminated
May 12
Waning Gibbous
May 12
Last Quarter
May 20
New
May 28
First Quarter
Jun 4
Full

Hourly Weather History & Observations

Time (CDT) Temp. Dew Point Humidity Pressure Visibility Wind Dir Wind Speed Gust Speed Precip Events Conditions
12:15 AM 57.2 °F 53.6 °F 88% 30.17 in 10.0 mi Calm Calm - N/A   Clear
12:35 AM 57.2 °F 53.6 °F 88% 30.16 in 10.0 mi Calm Calm - N/A   Clear
12:55 AM 57.2 °F 53.6 °F 88% 30.16 in 10.0 mi Calm Calm - N/A   Clear
1:15 AM 55.4 °F 51.8 °F 88% 30.16 in 10.0 mi Calm Calm - N/A   Clear
1:35 AM 55.4 °F 51.8 °F 88% 30.16 in 10.0 mi Calm Calm - N/A   Clear
2:15 AM 53.6 °F 51.8 °F 94% 30.16 in 10.0 mi Calm Calm - N/A   Clear
2:35 AM 53.6 °F 51.8 °F 94% 30.16 in 10.0 mi Calm Calm - N/A   Clear
2:55 AM 53.6 °F 51.8 °F 94% 30.16 in 10.0 mi Calm Calm - N/A   Clear
3:15 AM 55.4 °F 51.8 °F 88% 30.16 in 10.0 mi Calm Calm - N/A   Clear
3:35 AM 53.6 °F 50.0 °F 88% 30.16 in 10.0 mi Calm Calm - N/A   Clear
3:55 AM 53.6 °F 51.8 °F 94% 30.16 in 10.0 mi Calm Calm - N/A   Clear
4:15 AM 53.6 °F 51.8 °F 94% 30.17 in 10.0 mi Calm Calm - N/A   Clear
4:35 AM 53.6 °F 51.8 °F 94% 30.17 in 10.0 mi Calm Calm - N/A   Clear
4:55 AM 53.6 °F 50.0 °F 88% 30.17 in 10.0 mi Calm Calm - N/A   Clear
5:15 AM 51.8 °F 50.0 °F 94% 30.18 in 10.0 mi Calm Calm - N/A   Clear
5:35 AM 51.8 °F 50.0 °F 94% 30.19 in 10.0 mi Calm Calm - N/A   Clear
5:55 AM 53.6 °F 50.0 °F 88% 30.19 in 10.0 mi East 3.5 mph - N/A   Clear
6:15 AM 53.6 °F 51.8 °F 94% 30.20 in 10.0 mi Calm Calm - N/A   Clear
6:35 AM 53.6 °F 51.8 °F 94% 30.21 in 10.0 mi Calm Calm - N/A   Clear
6:55 AM 53.6 °F 51.8 °F 94% 30.21 in 10.0 mi Calm Calm - N/A   Clear
7:15 AM 55.4 °F 51.8 °F 88% 30.22 in 10.0 mi Calm Calm - N/A   Clear
7:35 AM 57.2 °F 53.6 °F 88% 30.22 in 10.0 mi Calm Calm - N/A   Clear
7:55 AM 57.2 °F 53.6 °F 88% 30.22 in 10.0 mi Calm Calm - N/A   Clear
8:35 AM 60.8 °F 55.4 °F 82% 30.23 in 10.0 mi Calm Calm - N/A   Clear
8:55 AM 60.8 °F 55.4 °F 82% 30.23 in 10.0 mi Calm Calm - N/A   Clear
9:15 AM 62.6 °F 55.4 °F 77% 30.23 in 10.0 mi ESE 3.5 mph - N/A   Clear
9:35 AM 66.2 °F 51.8 °F 60% 30.22 in 10.0 mi Calm Calm - N/A   Partly Cloudy
9:55 AM 66.2 °F 50.0 °F 56% 30.21 in 10.0 mi Calm Calm - N/A   Scattered Clouds
10:15 AM 66.2 °F 51.8 °F 60% 30.21 in 10.0 mi Calm Calm - N/A   Scattered Clouds
10:55 AM 66.2 °F 50.0 °F 56% 30.21 in 10.0 mi Calm Calm - N/A   Mostly Cloudy
11:15 AM 68.0 °F 53.6 °F 60% 30.21 in 10.0 mi East 3.5 mph - N/A   Mostly Cloudy
11:35 AM 66.2 °F 53.6 °F 64% 30.21 in 10.0 mi ENE 4.6 mph - N/A   Overcast
11:55 AM 66.2 °F 53.6 °F 64% 30.21 in 10.0 mi East 3.5 mph - N/A   Overcast
12:15 PM 68.0 °F 53.6 °F 60% 30.19 in 10.0 mi NE 10.4 mph - N/A   Scattered Clouds
12:35 PM 69.8 °F 51.8 °F 53% 30.19 in 10.0 mi ESE 6.9 mph - N/A   Clear
12:55 PM 69.8 °F 50.0 °F 49% 30.19 in 10.0 mi East 8.1 mph - N/A   Scattered Clouds
1:15 PM 69.8 °F 48.2 °F 46% 30.18 in 10.0 mi East 5.8 mph - N/A   Overcast
1:35 PM 69.8 °F 48.2 °F 46% 30.18 in 10.0 mi East 5.8 mph - N/A   Overcast
1:55 PM 71.6 °F 48.2 °F 43% 30.18 in 10.0 mi ENE 6.9 mph - N/A   Overcast
2:15 PM 71.6 °F 48.2 °F 43% 30.17 in 10.0 mi ENE 8.1 mph - N/A   Overcast
2:35 PM 71.6 °F 48.2 °F 43% 30.17 in 10.0 mi NNE 8.1 mph - N/A   Overcast
2:55 PM 71.6 °F 48.2 °F 43% 30.17 in 10.0 mi NNE 12.7 mph - N/A   Overcast
3:15 PM 71.6 °F 50.0 °F 46% 30.16 in 10.0 mi NNE 10.4 mph - N/A   Mostly Cloudy
3:35 PM 73.4 °F 50.0 °F 44% 30.16 in 10.0 mi NE 10.4 mph - N/A   Partly Cloudy
3:55 PM 73.4 °F 50.0 °F 44% 30.16 in 10.0 mi NNE 11.5 mph - N/A   Clear
4:15 PM 73.4 °F 51.8 °F 47% 30.16 in 10.0 mi NE 9.2 mph - N/A   Clear
4:35 PM 73.4 °F 50.0 °F 44% 30.15 in 10.0 mi NE 11.5 mph - N/A   Clear
4:55 PM 73.4 °F 50.0 °F 44% 30.15 in 10.0 mi NNE 10.4 mph - N/A   Clear
5:15 PM 73.4 °F 50.0 °F 44% 30.15 in 10.0 mi NE 10.4 mph - N/A   Clear
5:35 PM 73.4 °F 50.0 °F 44% 30.15 in 10.0 mi NNE 8.1 mph - N/A   Clear
5:55 PM 73.4 °F 50.0 °F 44% 30.15 in 10.0 mi NE 8.1 mph - N/A   Clear
6:15 PM 73.4 °F 50.0 °F 44% 30.15 in 10.0 mi NE 8.1 mph - N/A   Clear
6:35 PM 71.6 °F 48.2 °F 43% 30.15 in 10.0 mi NE 9.2 mph - N/A   Clear
6:55 PM 71.6 °F 48.2 °F 43% 30.15 in 10.0 mi NE 6.9 mph - N/A   Clear
7:15 PM 69.8 °F 48.2 °F 46% 30.16 in 10.0 mi NE 8.1 mph - N/A   Clear
7:35 PM 68.0 °F 48.2 °F 49% 30.16 in 10.0 mi NNE 6.9 mph - N/A   Clear
7:55 PM 66.2 °F 48.2 °F 52% 30.17 in 10.0 mi NNE 4.6 mph - N/A   Clear
8:15 PM 66.2 °F 48.2 °F 52% 30.17 in 10.0 mi NNE 3.5 mph - N/A   Clear
8:35 PM 66.2 °F 48.2 °F 52% 30.17 in 10.0 mi NNE 3.5 mph - N/A   Clear
8:55 PM 64.4 °F 48.2 °F 56% 30.17 in 10.0 mi North 4.6 mph - N/A   Clear
9:15 PM 64.4 °F 48.2 °F 56% 30.18 in 10.0 mi NNE 3.5 mph - N/A   Clear
9:35 PM 59.0 °F 48.2 °F 67% 30.18 in 10.0 mi East 4.6 mph - N/A   Clear
9:55 PM 59.0 °F 48.2 °F 67% 30.18 in 10.0 mi NE 4.6 mph - N/A   Clear
10:15 PM 55.4 °F 48.2 °F 77% 30.18 in 10.0 mi Calm Calm - N/A   Clear
10:35 PM 59.0 °F 48.2 °F 67% 30.18 in 10.0 mi Calm Calm - N/A   Clear
10:55 PM 55.4 °F 48.2 °F 77% 30.17 in 10.0 mi Calm Calm - N/A   Clear
11:15 PM 55.4 °F 48.2 °F 77% 30.17 in 10.0 mi Calm Calm - N/A   Clear
11:35 PM 55.4 °F 48.2 °F 77% 30.17 in 10.0 mi Calm Calm - N/A   Clear
11:55 PM 53.6 °F 48.2 °F 82% 30.16 in 10.0 mi Calm Calm - N/A   Clear